Date,TemperatureHighF,TemperatureAvgF,TemperatureLowF,DewpointHighF,DewpointAvgF,DewpointLowF,HumidityHigh,HumidityAvg,HumidityLow,PressureMaxIn,PressureMinIn,WindSpeedMaxMPH,WindSpeedAvgMPH,GustSpeedMaxMPH,PrecipitationSumIn
2013-4-1,76,59,34,-100,-100,-100,0,0,100,0.00,40.00,0,-999,0,0.00
2013-4-2,69,60,43,-100,-100,-100,0,0,100,0.00,40.00,0,-999,0,0.00
2013-4-3,68,55,36,-100,-100,-100,0,0,100,0.00,40.00,0,-999,0,0.00
2013-4-4,52,49,45,-100,-100,-100,0,0,100,0.00,40.00,0,-999,0,0.00
2013-4-5,62,51,37,-100,-100,-100,0,0,100,0.00,40.00,0,-999,0,0.00
2013-4-6,59,50,43,-100,-100,-100,0,0,100,0.00,40.00,0,-999,0,0.00
2013-4-7,53,43,35,-100,-100,-100,0,0,100,0.00,40.00,0,-999,0,0.00
2013-4-8,53,43,38,-100,-100,-100,0,0,100,0.00,40.00,0,-999,0,0.00
2013-4-9,60,49,30,-100,-100,-100,0,0,100,0.00,40.00,0,-999,0,0.00
2013-4-10,56,51,43,-100,-100,-100,0,0,100,0.00,40.00,0,-999,0,0.00
2013-4-11,59,48,36,-100,-100,-100,0,0,100,0.00,40.00,0,-999,0,0.00
2013-4-12,54,43,30,-100,-100,-100,0,0,100,0.00,40.00,0,-999,0,0.00
2013-4-13,53,44,32,-100,-100,-100,0,0,100,0.00,40.00,0,-999,0,0.00
2013-4-14,59,43,29,-100,-100,-100,0,0,100,0.00,40.00,0,-999,0,0.00
2013-4-15,49,38,31,-100,-100,-100,0,0,100,0.00,40.00,0,-999,0,0.00
2013-4-16,53,42,31,-100,-100,-100,0,0,100,0.00,40.00,0,-999,0,0.00
2013-4-17,58,46,25,-100,-100,-100,0,0,100,0.00,40.00,0,-999,0,0.00
2013-4-18,65,51,39,-100,-100,-100,0,0,100,0.00,40.00,0,-999,0,0.00
2013-4-19,63,54,42,-100,-100,-100,0,0,100,0.00,40.00,0,-999,0,0.00
2013-4-20,66,54,44,-100,-100,-100,0,0,100,0.00,40.00,0,-999,0,0.00
2013-4-21,61,50,37,-100,-100,-100,0,0,100,0.00,40.00,0,-999,0,0.00
2013-4-22,61,45,26,-100,-100,-100,0,0,100,0.00,40.00,0,-999,0,0.00
2013-4-23,62,48,28,-100,-100,-100,0,0,100,0.00,40.00,0,-999,0,0.00
2013-4-24,71,55,29,-100,-100,-100,0,0,100,0.00,40.00,0,-999,0,0.00
2013-4-25,75,62,39,-100,-100,-100,0,0,100,0.00,40.00,0,-999,0,0.00
2013-4-26,78,61,47,-100,-100,-100,0,0,100,0.00,40.00,0,-999,0,0.00
2013-4-27,71,58,38,-100,-100,-100,0,0,100,0.00,40.00,0,-999,0,0.00
2013-4-28,66,55,37,-100,-100,-100,0,0,100,0.00,40.00,0,-999,0,0.00
2013-4-29,59,50,42,-100,-100,-100,0,0,100,0.00,40.00,0,-999,0,0.00
2013-4-30,57,50,41,-100,-100,-100,0,0,100,0.00,40.00,0,-999,0,0.00